Content
SEND FEEDBACK

Daily
Averages
Monthly
Summary
United States of America

CHELSEA, MONTANA


Home > North America > United States > Montana
Elevation: 1991 feet     Latitude: 48 05N     Longitude: 105 38W

WEATHER
 
SELECT A DAY
Number of Records: 20,798;   Date Range: 9/1/12 - 10/29/14
 
SHARE

PRINT THIS DATA

[ ← Previous Day ]
WEATHER ALMANAC - FEBRUARY 13, 2013
[ Next Day → ]
[ °C ]   °F
Weather ElementAverageHighLow
Temperature33.5 °F39.9 °F (2:53 pm)21.9 °F (1:53 am)
Dewpoint26.3 °F30.9 °F (5:53 am)19.9 °F (1:53 am)
Humidity75.5 %92 % (1:53 am)65 % (2:53 pm)
Barometer29.83 in30.00 in (11:53 pm)29.68 in (5:53 am)
Wind Speed15.1 mph25.3 mph (6:53 pm)
Wind Gust34.5 mph (6:53 pm)
Weather ElementAverage
Visibility9.9 mi
Wind DirectionWSW (243.8 °)

Weather ElementTotal
Precipitation0.01 in
Heating Degree Days34.1 (Base 65)
Averaged from 24 records on February 13, 2013
WEATHER CONDITIONS BREAKOUT
WIND DIRECTION BREAKOUT
WEATHER BY HOUR - FEBRUARY 13, 2013
[ °C ]   °F
Local TimeTemperatureDewpointHumidityBarometerVisibilityWind DirectionWind SpeedGust SpeedPrecipitationEventsConditions
1:53 AM21.9 °F19.9 °F92 %29.75 in10.0 miCalmClear
2:53 AM24.1 °F21.0 °F88 %29.72 in10.0 miCalmOvercast
3:53 AM26.1 °F23.0 °F88 %29.70 in10.0 miCalmOvercast
4:53 AM33.1 °F28.0 °F82 %29.70 in8.0 miWest (270°)15.0 mph0.00 inOvercast
5:53 AM34.0 °F30.9 °F89 %29.68 in10.0 miWSW (240°)10.4 mph0.01 inOvercast
6:53 AM35.1 °F28.9 °F78 %29.69 in10.0 miWest (280°)13.8 mph21.9 mphMostly Cloudy
7:53 AM37.0 °F28.9 °F73 %29.71 in10.0 miWNW (290°)17.3 mphClear
8:53 AM36.0 °F28.9 °F76 %29.74 in10.0 miWest (270°)11.5 mphClear
9:53 AM37.0 °F28.9 °F73 %29.75 in10.0 miWest (270°)17.3 mphOvercast
10:53 AM37.9 °F30.0 °F73 %29.78 in10.0 miWest (280°)16.1 mphClear
11:53 AM37.9 °F30.0 °F73 %29.80 in10.0 miWest (270°)13.8 mphPartly Cloudy
12:53 PM39.0 °F30.0 °F70 %29.80 in10.0 miWest (280°)16.1 mph24.2 mphClear
1:53 PM39.0 °F30.0 °F70 %29.81 in10.0 miWest (280°)16.1 mph24.2 mphClear
2:53 PM39.9 °F28.9 °F65 %29.84 in10.0 miWest (280°)19.6 mphClear
3:53 PM37.0 °F30.0 °F76 %29.88 in10.0 miWNW (300°)19.6 mph29.9 mphClear
4:53 PM36.0 °F28.9 °F76 %29.89 in10.0 miWest (280°)17.3 mphClear
5:53 PM35.1 °F28.0 °F76 %29.90 in10.0 miWNW (290°)16.1 mphClear
6:53 PM33.1 °F23.0 °F66 %29.94 in10.0 miWNW (300°)25.3 mph34.5 mphScattered Clouds
7:53 PM32.0 °F21.9 °F66 %29.94 in10.0 miWest (270°)19.6 mph26.5 mphClear
8:53 PM30.9 °F21.9 °F69 %29.96 in10.0 miWest (280°)18.4 mph29.9 mphOvercast
9:34 PM30.2 °F21.2 °F69 %29.90 in10.0 miWest (280°)21.9 mph29.9 mphOvercast
9:53 PM30.9 °F23.0 °F72 %29.97 in10.0 miWNW (290°)23.0 mph32.2 mphOvercast
10:53 PM30.9 °F23.0 °F72 %29.99 in10.0 miWest (270°)17.3 mph27.6 mphOvercast
11:53 PM30.0 °F24.1 °F79 %30.00 in10.0 miWest (280°)16.1 mphOvercast
Hourly data recorded from KOLF, located miles away from Chelsea, Montana







STORIES FROM OUR PARTNERS